Regional Weather Roundup
Issued by NWS

Home | Current Version | Previous Version | Graphics & Text | Print | Product List | Glossary On
Versions: 1 2 3 4 5 6 7 8 9 10 11 12 13 14 15 16 17 18 19 20 21 22 23 24 25 26 27 28 29 30 31 32 33 34 35 36 37 38 39 40 41 42 43 44 45 46 47 48 49 50
000
ASUS45 KTFX 210310
RWRMT
MONTANA REGIONAL WEATHER ROUNDUP
NATIONAL WEATHER SERVICE GREAT FALLS MT
800 PM MST MON FEB 20 2017

NOTE: "FAIR" INDICATES FEW OR NO CLOUDS BELOW 12000 FEET WITH NO
SIGNIFICANT WEATHER AND/OR OBSTRUCTIONS TO VISIBILITY.

MTZ001>007-043-210400-
WEST OF THE DIVIDE

CITY           SKY/WX    TMP DP  RH WIND       PRES   REMARKS
KALISPELL      CLOUDY    37  35  92 S8        29.61S WCI  31
MISSOULA       LGT RAIN  34  34 100 NW7       29.72R WCI  28
BUTTE          CLOUDY    39  28  64 SE5       29.71F
MULLAN PASS    MOCLDY    28  27  96 SW15G35   29.62R WCI  16
ANACONDA         N/A     41  28  60 S12G18    29.70R
DEER LODGE       N/A     39  30  70 S9        29.68S
EUREKA           N/A     36  34  93 S14       29.56R WCI  27
HAMILTON         N/A     46  27  46 S10       29.66R
LIBBY            N/A     36  36 100 CALM      29.57R
PLAINS           N/A     34  30  85 CALM      29.69R
RONAN            N/A     41  35  79 S8        29.72R
$$

MTZ008-052>055-210400-
SOUTHWEST MONTANA

CITY           SKY/WX    TMP DP  RH WIND       PRES   REMARKS
BOZEMAN        CLOUDY    44  30  57 SW16      29.72S
DILLON         CLOUDY    38  31  76 SW15      29.75F WCI  29
W YELLOWSTONE  CLOUDY    32  32 100 SW20G26   29.84F FOG     WCI  20
ENNIS          CLOUDY    41  30  65 S13       29.82F
THREE FORKS      N/A     45 -37   2 S14       29.73F
$$

MTZ009-010-012-014-046-048-049-054-210400-
EAST SLOPES AND CENTRAL MONTANA

CITY           SKY/WX    TMP DP  RH WIND       PRES   REMARKS
CUT BANK       PTCLDY    36  29  75 SW13      29.55R WCI  27
GREAT FALLS    PTCLDY    34  30  85 W3        29.62R
MALMSTROM AFB  PTCLDY    33  30  88 SW7       29.62R WCI  27
HELENA         PTCLDY    47  28  47 SW9       29.64S
AUGUSTA        MOCLDY    35  34  96 S12       29.60F WCI  27
BOWMANS CRNR   LGT RAIN  38  35  89 W23G32    29.61R WCI  27
CHOTEAU          N/A     36  32  87 CALM      29.61S
CONRAD           N/A     36  35  96 S7        29.64S WCI  30
POWER            N/A     36  32  85 SW12      29.60F WCI  28
RAYNESFORD     MOCLDY    36  31  84 E3        29.63R
ULM              N/A     37  33  85 MISG      29.61S
$$

MTZ011-013-016-021-045-047-050-051-210400-
NORTH CENTRAL MONTANA

CITY           SKY/WX    TMP DP  RH WIND       PRES   REMARKS
HAVRE          PTCLDY    37  35  92 SW12      29.57R WCI  29
LEWISTOWN      PTCLDY    39  35  86 CALM      29.66R
N BAR RANCH      N/A     46  27  46 W15G23    29.68R
CHINOOK          N/A     39  34  81 CALM      29.58R
DENTON           N/A     38  33  81 S15       29.60R WCI  30
FORT BENTON      N/A     45  34  65 N6        29.62R
GEYSER         MOCLDY    38  33  80 SW10      29.63R WCI  31
GRASS RANGE    LGT RAIN  44  38  77 W25       29.65R
JUDITH GAP       N/A     41  31  68 W18G25    29.67R
ROY            MOCLDY    43  37  78 MISG      29.63R
STANFORD         N/A     36  34  94 SW9       29.64F WCI  29
WINIFRED         N/A     40  34  81 SW8G84    29.62R SQUALL
$$

MTZ017>020-022>027-061-062-210400-
NORTHEAST MONTANA

CITY           SKY/WX    TMP DP  RH WIND       PRES   REMARKS
GLASGOW        LGT RAIN  45  39  79 SW9       29.60S
JORDAN           N/A     42  34  73 W3        29.63R
SIDNEY         CLOUDY    43  28  55 CALM      29.65F
WOLF POINT     LGT RAIN  40  30  67 CALM      29.64R
PLENTYWOOD       N/A     39  27  60 E5        29.64F
POPLAR           N/A     39  28  65 SW3       29.65R
$$

MTZ028>42-056>058-210400-
SOUTHCENTRAL AND SOUTHEAST MONTANA

CITY           SKY/WX    TMP DP  RH WIND       PRES   REMARKS
BAKER          CLOUDY    42  30  62 VRB6      29.68F
BILLINGS       CLOUDY    50  31  48 W18       29.67R
LIVINGSTON     PTCLDY    48  29  47 SW29G45   29.68R
MILES CITY     CLOUDY    46  29  51 S9        29.63F
BIG TIMBER     CLOUDY    48  28  46 W16G24    29.72R
EKALAKA          N/A     53  20  27 SE6       29.70F
FORSYTH          N/A     48  28  46 CALM      29.64S
HARLOWTON        N/A     39  31  72 W14       29.68R WCI  31
LAUREL           N/A     48  28  46 SW8       29.70R
ROUNDUP          N/A     49  28  44 SW13      29.61R
$$

REGIONAL REPORTS...DAKOTAS

CITY           SKY/WX    TMP DP  RH WIND       PRES   REMARKS
WILLISTON      MOCLDY    34  29  82 CALM      29.66F
MINOT          CLEAR     37  32  82 SW9       29.69F WCI  30
DICKINSON      CLEAR     34  26  72 S7        29.68F WCI  28
BEACH            N/A    N/A N/A N/A MISG        N/A
CROSBY           N/A     32  32 100 S10       29.68S WCI  24
TIOGA            N/A     32  32 100 CALM      29.68F
WATFORD CITY     N/A     37  28  70 CALM      29.67F
BISMARCK       CLEAR     36  32  85 E3        29.75F
GRAND FORKS    CLEAR     33  28  81 W8        29.72R WCI  26
FARGO          CLEAR     34  32  92 SW7       29.76R WCI  28
BUFFALO SD       N/A     47  25  42 S12       29.65S
RAPID CITY     PTCLDY    49  29  46 S9        29.78F
$$

REGIONAL REPORTS...WYOMING/IDAHO/WASHINGTON

CITY           SKY/WX    TMP DP  RH WIND       PRES   REMARKS
GILLETTE       CLOUDY    51  29  42 SW22G29   29.76F
SHERIDAN       CLOUDY    54  26  34 SE16      29.70F
BUFFALO WY     CLOUDY    53  24  32 S12G18    29.75S
CODY           CLEAR     44  30  57 SW7       29.81S
YELLOWSTONE LA   N/A     31  31 100 VRB6      29.89R WCI  25
IDAHO FALLS    CLOUDY    41  36  82 S23G30    29.87F
SALMON         CLOUDY    41  34  75 S14G21    29.74F
BOISE          CLOUDY    49  40  71 SE9       29.78S
SPOKANE        CLOUDY    35  33  92 SW23      29.65R WCI  23
$$

REGIONAL REPORTS...ALBERTA

CITY           SKY/WX    TMP DP  RH WIND       PRES   REMARKS
EDMONTON       CLOUDY    30  27  86 E3        29.61S
CALGARY        FOG       30  27  86 N5        29.52S VSB 3/8
LETHBRIDGE     PTCLDY    32  28  86 S9        29.50F WCI  24
MEDICINE HAT   MOCLDY    41  28  60 SE2       29.54F
WATERTON GATE    N/A     36  32  87 SW14G21     N/A  WCI  27
CARDSTON         N/A     34  28  80 S3          N/A
MILK RIVER       N/A     36  32  87 SW10        N/A  WCI  28
ONEFOUR          N/A     32  28  86 E9          N/A  WCI  24
$$

REGIONAL REPORTS...SASKATCHEWAN

CITY           SKY/WX    TMP DP  RH WIND       PRES   REMARKS
SWIFT CURRENT  CLOUDY    36  28  75 E7        29.58S WCI  30
REGINA         PTCLDY    30  30 100 E6        29.63F WCI  24
SASKATOON      CLOUDY    34  30  86 W6        29.65F WCI  29
CYPRESS HILLS    N/A     34  23  64 SE3         N/A
VAL MARIE        N/A     36  27  69 E6          N/A  WCI  31
ROCKGLEN         N/A     39  27  60 SE5         N/A
ASSINIBOIA       N/A     32  28  86 NE1         N/A
$$



USA.gov is the U.S. government's official web portal to all federal, state and local government web resources and services.